| time (UTC) | temp C | wind direction | speed KPH | gust KPH | rain 1hr cm | rain 24hr cm | rain mn cm | humidity % | barometer mb |
| 20260504080215 | 4 | 104 | 0.0 | 0.0 | 0.00 | 0.00 | 0.00 | 73 | 1010.4 |
| 20260504070143 | 6 | 121 | 0.0 | 1.6 | 0.00 | 0.00 | 0.00 | 64 | 1010.6 |
| 20260504060103 | 6 | 122 | 0.0 | 0.0 | 0.00 | 0.00 | 0.00 | 64 | 1010.5 |
| 20260504050531 | 6 | 128 | 0.0 | 0.0 | 0.00 | 0.00 | 0.00 | 60 | 1010.5 |
| 20260504045525 | 6 | 126 | 0.0 | 0.0 | 0.00 | 0.00 | 0.00 | 60 | 1010.3 |
| 20260504045020 | 6 | 141 | 0.0 | 0.0 | 0.00 | 0.00 | 0.00 | 60 | 1010.3 |
| 20260504044518 | 6 | 141 | 0.0 | 0.0 | 0.00 | 0.00 | 0.00 | 60 | 1010.4 |
| 20260504044015 | 6 | 142 | 0.0 | 0.0 | 0.00 | 0.00 | 0.00 | 59 | 1010.4 |
| 20260504043512 | 6 | 136 | 0.0 | 0.0 | 0.00 | 0.00 | 0.00 | 59 | 1010.3 |
| 20260504043010 | 6 | 130 | 0.0 | 0.0 | 0.00 | 0.00 | 0.00 | 59 | 1010.3 |
| 20260504042506 | 7 | 128 | 0.0 | 0.0 | 0.00 | 0.00 | 0.00 | 58 | 1010.1 |
| 20260504042003 | 7 | 147 | 0.0 | 3.2 | 0.00 | 0.00 | 0.00 | 56 | 1010.1 |
| 20260504041459 | 7 | 114 | 0.0 | 0.0 | 0.00 | 0.00 | 0.00 | 56 | 1010.1 |
| 20260504040955 | 7 | 112 | 0.0 | 1.6 | 0.00 | 0.00 | 0.00 | 55 | 1010.0 |
| 20260504040453 | 7 | 137 | 0.0 | 0.0 | 0.00 | 0.00 | 0.00 | 56 | 1010.0 |
| 20260504035948 | 7 | 136 | 0.0 | 0.0 | 0.00 | 0.00 | 0.00 | 56 | 1009.9 |
| 20260504035446 | 7 | 136 | 0.0 | 0.0 | 0.00 | 0.00 | 0.00 | 54 | 1010.0 |
| 20260504034943 | 7 | 136 | 0.0 | 0.0 | 0.00 | 0.00 | 0.00 | 54 | 1010.0 |
| 20260504034440 | 7 | 136 | 0.0 | 0.0 | 0.00 | 0.00 | 0.00 | 54 | 1009.9 |
| 20260504033937 | 7 | 136 | 0.0 | 1.6 | 0.00 | 0.00 | 0.00 | 54 | 1009.8 |
| 20260504033435 | 7 | 134 | 0.0 | 1.6 | 0.00 | 0.00 | 0.00 | 54 | 1009.8 |
| 20260504032932 | 7 | 134 | 0.0 | 0.0 | 0.00 | 0.00 | 0.00 | 56 | 1009.9 |
| 20260504032429 | 7 | 134 | 0.0 | 0.0 | 0.00 | 0.00 | 0.00 | 56 | 1009.8 |
| 20260504031925 | 7 | 133 | 0.0 | 0.0 | 0.00 | 0.00 | 0.00 | 56 | 1009.9 |
| 20260504031422 | 7 | 134 | 0.0 | 0.0 | 0.00 | 0.00 | 0.00 | 55 | 1009.9 |
| 20260504030919 | 7 | 134 | 0.0 | 0.0 | 0.00 | 0.00 | 0.00 | 56 | 1009.9 |
| 20260504030416 | 7 | 133 | 0.0 | 0.0 | 0.00 | 0.00 | 0.00 | 54 | 1010.1 |
| 20260504025912 | 7 | 133 | 0.0 | 0.0 | 0.00 | 0.00 | 0.00 | 53 | 1009.9 |
| 20260504025409 | 7 | 116 | 0.0 | 0.0 | 0.00 | 0.00 | 0.00 | 52 | 1010.0 |
| 20260504024906 | 8 | 115 | 0.0 | 1.6 | 0.00 | 0.00 | 0.00 | 52 | 1010.1 |
| 20260504024403 | 8 | 139 | 0.0 | 0.0 | 0.00 | 0.00 | 0.00 | 51 | 1009.9 |
| 20260504023900 | 8 | 149 | 0.0 | 1.6 | 0.00 | 0.00 | 0.00 | 52 | 1009.9 |
| 20260504023356 | 8 | 149 | 0.0 | 0.0 | 0.00 | 0.00 | 0.00 | 50 | 1009.9 |
| 20260504022852 | 8 | 149 | 0.0 | 0.0 | 0.00 | 0.00 | 0.00 | 50 | 1009.9 |
| 20260504022349 | 8 | 149 | 0.0 | 0.0 | 0.00 | 0.00 | 0.00 | 50 | 1009.9 |
| 20260504021845 | 8 | 149 | 0.0 | 1.6 | 0.00 | 0.00 | 0.00 | 50 | 1010.1 |
| 20260504021343 | 8 | 148 | 0.0 | 0.0 | 0.00 | 0.00 | 0.00 | 50 | 1009.9 |
| 20260504020840 | 8 | 148 | 0.0 | 0.0 | 0.00 | 0.00 | 0.00 | 51 | 1009.9 |
| 20260504020336 | 8 | 148 | 0.0 | 0.0 | 0.00 | 0.00 | 0.00 | 52 | 1009.8 |
| 20260504015832 | 8 | 153 | 1.6 | 1.6 | 0.00 | 0.00 | 0.00 | 50 | 1009.9 |
| 20260504015329 | 8 | 140 | 0.0 | 0.0 | 0.00 | 0.00 | 0.00 | 49 | 1009.7 |
| 20260504014825 | 8 | 141 | 0.0 | 0.0 | 0.00 | 0.00 | 0.00 | 52 | 1009.8 |
| 20260504014321 | 8 | 141 | 0.0 | 1.6 | 0.00 | 0.00 | 0.00 | 52 | 1009.7 |
| 20260504013819 | 8 | 136 | 1.6 | 1.6 | 0.00 | 0.00 | 0.00 | 50 | 1009.7 |
| 20260504013317 | 8 | 125 | 0.0 | 0.0 | 0.00 | 0.00 | 0.00 | 51 | 1009.8 |
| 20260504012813 | 8 | 125 | 0.0 | 0.0 | 0.00 | 0.00 | 0.00 | 51 | 1009.5 |
| 20260504012311 | 8 | 124 | 0.0 | 0.0 | 0.00 | 0.00 | 0.00 | 50 | 1009.6 |
| 20260504011808 | 8 | 118 | 0.0 | 1.6 | 0.00 | 0.00 | 0.00 | 49 | 1009.5 |
| 20260504011304 | 8 | 125 | 0.0 | 0.0 | 0.00 | 0.00 | 0.00 | 48 | 1009.5 |
| 20260504010800 | 9 | 125 | 0.0 | 0.0 | 0.00 | 0.00 | 0.00 | 48 | 1009.5 |
| 20260504010256 | 9 | 125 | 0.0 | 0.0 | 0.00 | 0.00 | 0.00 | 47 | 1009.4 |
| 20260504005753 | 9 | 125 | 0.0 | 0.0 | 0.00 | 0.00 | 0.00 | 46 | 1009.4 |
| 20260504005250 | 9 | 125 | 0.0 | 1.6 | 0.00 | 0.00 | 0.00 | 47 | 1009.3 |
| 20260504004748 | 9 | 124 | 0.0 | 0.0 | 0.00 | 0.00 | 0.00 | 47 | 1009.2 |
| 20260504004245 | 10 | 124 | 0.0 | 0.0 | 0.00 | 0.00 | 0.00 | 46 | 1009.1 |
| 20260504003741 | 10 | 147 | 0.0 | 0.0 | 0.00 | 0.00 | 0.00 | 45 | 1009.1 |
| 20260504003238 | 10 | 147 | 0.0 | 0.0 | 0.00 | 0.00 | 0.00 | 45 | 1009.1 |
| 20260504002735 | 10 | 147 | 0.0 | 0.0 | 0.00 | 0.00 | 0.00 | 44 | 1009.2 |
| 20260504002231 | 10 | 146 | 0.0 | 1.6 | 0.00 | 0.00 | 0.00 | 45 | 1009.0 |
| 20260504001730 | 10 | 127 | 0.0 | 0.0 | 0.00 | 0.00 | 0.00 | 44 | 1009.0 |
| 20260504001226 | 10 | 127 | 0.0 | 1.6 | 0.00 | 0.00 | 0.00 | 43 | 1009.0 |
| 20260504000723 | 11 | 141 | 0.0 | 1.6 | 0.00 | 0.00 | 0.00 | 43 | 1008.9 |
| 20260504000220 | 11 | 156 | 0.0 | 1.6 | 0.00 | 0.00 | 0.00 | 41 | 1008.9 |
| 20260503235718 | 11 | 144 | 0.0 | 1.6 | 0.00 | 0.00 | 0.00 | 40 | 1008.8 |
| 20260503235215 | 11 | 142 | 0.0 | 0.0 | 0.00 | 0.00 | 0.00 | 40 | 1008.8 |
| 20260503234713 | 11 | 151 | 0.0 | 0.0 | 0.00 | 0.00 | 0.00 | 39 | 1008.8 |
| 20260503234211 | 12 | 151 | 0.0 | 3.2 | 0.00 | 0.00 | 0.00 | 39 | 1008.7 |
| 20260503233708 | 12 | 115 | 0.0 | 0.0 | 0.00 | 0.00 | 0.00 | 38 | 1008.6 |
| 20260503233203 | 12 | 133 | 0.0 | 1.6 | 0.00 | 0.00 | 0.00 | 38 | 1008.6 |
| 20260503232700 | 12 | 130 | 0.0 | 1.6 | 0.00 | 0.00 | 0.00 | 36 | 1008.6 |
| 20260503232157 | 12 | 115 | 0.0 | 3.2 | 0.00 | 0.00 | 0.00 | 37 | 1008.5 |
| 20260503231656 | 13 | 155 | 0.0 | 9.7 | 0.00 | 0.00 | 0.00 | 36 | 1008.6 |
| 20260503231151 | 13 | 242 | 3.2 | 9.7 | 0.00 | 0.00 | 0.00 | 35 | 1008.6 |
| 20260503230648 | 13 | 172 | 3.2 | 3.2 | 0.00 | 0.00 | 0.00 | 34 | 1008.4 |
| 20260503230145 | 13 | 195 | 4.8 | 9.7 | 0.00 | 0.00 | 0.00 | 34 | 1008.3 |
| 20260503225643 | 13 | 169 | 1.6 | 4.8 | 0.00 | 0.00 | 0.00 | 34 | 1008.3 |
| 20260503225143 | 13 | 250 | 4.8 | 4.8 | 0.00 | 0.00 | 0.00 | 34 | 1008.3 |
| 20260503224640 | 14 | 293 | 6.4 | 9.7 | 0.00 | 0.00 | 0.00 | 32 | 1008.6 |
| 20260503224138 | 14 | 26 | 3.2 | 4.8 | 0.00 | 0.00 | 0.00 | 33 | 1008.4 |
| 20260503223636 | 14 | 35 | 3.2 | 8.0 | 0.00 | 0.00 | 0.00 | 32 | 1008.2 |
| 20260503223132 | 13 | 308 | 8.0 | 11.3 | 0.00 | 0.00 | 0.00 | 32 | 1008.3 |
| 20260503222629 | 14 | 224 | 4.8 | 8.0 | 0.00 | 0.00 | 0.00 | 33 | 1008.4 |
| 20260503222127 | 13 | 9 | 4.8 | 11.3 | 0.00 | 0.00 | 0.00 | 32 | 1008.2 |
| 20260503221625 | 14 | 326 | 8.0 | 14.5 | 0.00 | 0.00 | 0.00 | 31 | 1008.4 |
| 20260503221122 | 13 | 344 | 6.4 | 12.9 | 0.00 | 0.00 | 0.00 | 34 | 1008.5 |
| 20260503220619 | 13 | 351 | 8.0 | 14.5 | 0.00 | 0.00 | 0.00 | 33 | 1008.3 |
| 20260503220115 | 13 | 232 | 4.8 | 8.0 | 0.00 | 0.00 | 0.00 | 32 | 1008.5 |
| 20260503215612 | 14 | 214 | 3.2 | 11.3 | 0.00 | 0.00 | 0.00 | 31 | 1008.2 |
| 20260503215109 | 13 | 35 | 3.2 | 8.0 | 0.00 | 0.00 | 0.00 | 31 | 1008.2 |
| 20260503214608 | 14 | 327 | 4.8 | 11.3 | 0.00 | 0.00 | 0.00 | 30 | 1008.2 |
| 20260503214103 | 13 | 357 | 3.2 | 12.9 | 0.00 | 0.00 | 0.00 | 32 | 1008.1 |
| 20260503213603 | 14 | 4 | 6.4 | 11.3 | 0.00 | 0.00 | 0.00 | 30 | 1008.3 |
| 20260503213058 | 15 | 41 | 3.2 | 11.3 | 0.00 | 0.00 | 0.00 | 30 | 1007.7 |
| 20260503212556 | 15 | 338 | 3.2 | 4.8 | 0.00 | 0.00 | 0.00 | 30 | 1008.0 |
| 20260503212053 | 15 | 310 | 4.8 | 11.3 | 0.00 | 0.00 | 0.00 | 31 | 1008.0 |
| 20260503211550 | 14 | 336 | 6.4 | 11.3 | 0.00 | 0.00 | 0.00 | 29 | 1007.8 |
| 20260503211045 | 15 | 315 | 4.8 | 8.0 | 0.00 | 0.00 | 0.00 | 31 | 1007.8 |
| 20260503210543 | 14 | 13 | 3.2 | 8.0 | 0.00 | 0.00 | 0.00 | 29 | 1008.0 |
| 20260503210038 | 14 | 66 | 4.8 | 14.5 | 0.00 | 0.00 | 0.00 | 31 | 1008.1 |
| 20260503205535 | 15 | 323 | 8.0 | 12.9 | 0.00 | 0.00 | 0.00 | 28 | 1008.2 |
| 20260503205032 | 14 | 157 | 4.8 | 9.7 | 0.00 | 0.00 | 0.00 | 30 | 1007.7 |
| 20260503204529 | 14 | 354 | 6.4 | 9.7 | 0.00 | 0.00 | 0.00 | 29 | 1008.2 |
| 20260503204026 | 15 | 254 | 8.0 | 12.9 | 0.00 | 0.00 | 0.00 | 27 | 1008.0 |
| 20260503203523 | 15 | 344 | 9.7 | 12.9 | 0.00 | 0.00 | 0.00 | 27 | 1008.2 |
| 20260503203020 | 15 | 258 | 4.8 | 14.5 | 0.00 | 0.00 | 0.00 | 30 | 1008.1 |
| 20260503202518 | 15 | 49 | 4.8 | 14.5 | 0.00 | 0.00 | 0.00 | 29 | 1008.0 |
| 20260503202016 | 14 | 59 | 1.6 | 8.0 | 0.00 | 0.00 | 0.00 | 32 | 1008.1 |
| 20260503201514 | 15 | 40 | 6.4 | 11.3 | 0.00 | 0.00 | 0.00 | 28 | 1008.3 |
| 20260503201011 | 15 | 337 | 11.3 | 12.9 | 0.00 | 0.00 | 0.00 | 29 | 1008.1 |
| 20260503200507 | 15 | 332 | 1.6 | 16.1 | 0.00 | 0.00 | 0.00 | 28 | 1008.4 |
| 20260503200004 | 14 | 291 | 4.8 | 9.7 | 0.00 | 0.00 | 0.00 | 30 | 1008.3 |
| 20260503195501 | 14 | 55 | 6.4 | 9.7 | 0.00 | 0.00 | 0.00 | 31 | 1008.2 |
| 20260503194957 | 13 | 348 | 8.0 | 12.9 | 0.00 | 0.00 | 0.00 | 30 | 1008.4 |
| 20260503194455 | 14 | 348 | 8.0 | 11.3 | 0.00 | 0.00 | 0.00 | 29 | 1008.6 |
| 20260503193949 | 13 | 151 | 3.2 | 11.3 | 0.00 | 0.00 | 0.00 | 33 | 1008.5 |
| 20260503193445 | 13 | 326 | 9.7 | 22.5 | 0.00 | 0.00 | 0.00 | 31 | 1008.4 |
| 20260503192941 | 13 | 290 | 6.4 | 17.7 | 0.00 | 0.00 | 0.00 | 31 | 1008.6 |
| 20260503192438 | 13 | 29 | 4.8 | 16.1 | 0.00 | 0.00 | 0.00 | 30 | 1008.6 |
| 20260503191933 | 13 | 353 | 9.7 | 20.9 | 0.00 | 0.00 | 0.00 | 30 | 1008.7 |
| 20260503191431 | 13 | 36 | 9.7 | 12.9 | 0.00 | 0.00 | 0.00 | 30 | 1008.6 |
| 20260503190927 | 13 | 48 | 4.8 | 9.7 | 0.00 | 0.00 | 0.00 | 31 | 1008.7 |
| 20260503190425 | 13 | 260 | 9.7 | 14.5 | 0.00 | 0.00 | 0.00 | 31 | 1008.6 |
| 20260503185922 | 13 | 220 | 4.8 | 12.9 | 0.00 | 0.00 | 0.00 | 30 | 1008.6 |
| 20260503185418 | 13 | 314 | 4.8 | 12.9 | 0.00 | 0.00 | 0.00 | 31 | 1008.8 |
| 20260503184917 | 13 | 318 | 9.7 | 12.9 | 0.00 | 0.00 | 0.00 | 31 | 1008.9 |
| 20260503184414 | 13 | 36 | 9.7 | 17.7 | 0.00 | 0.00 | 0.00 | 29 | 1009.0 |
| 20260503183910 | 12 | 82 | 8.0 | 24.1 | 0.00 | 0.00 | 0.00 | 32 | 1009.2 |
| 20260503183407 | 12 | 55 | 4.8 | 9.7 | 0.00 | 0.00 | 0.00 | 32 | 1009.2 |
| 20260503182904 | 11 | 173 | 4.8 | 8.0 | 0.00 | 0.00 | 0.00 | 35 | 1009.3 |
| 20260503182403 | 13 | 5 | 9.7 | 20.9 | 0.00 | 0.00 | 0.00 | 32 | 1009.2 |
| 20260503181900 | 12 | 326 | 6.4 | 8.0 | 0.00 | 0.00 | 0.00 | 33 | 1009.3 |
| 20260503181357 | 12 | 343 | 14.5 | 17.7 | 0.00 | 0.00 | 0.00 | 32 | 1009.3 |
| 20260503180853 | 12 | 358 | 9.7 | 14.5 | 0.00 | 0.00 | 0.00 | 32 | 1009.4 |
| 20260503180351 | 12 | 330 | 4.8 | 12.9 | 0.00 | 0.00 | 0.00 | 34 | 1009.2 |
| 20260503175847 | 12 | 315 | 16.1 | 17.7 | 0.00 | 0.00 | 0.00 | 32 | 1009.2 |
| 20260503175345 | 11 | 19 | 4.8 | 12.9 | 0.00 | 0.00 | 0.00 | 37 | 1009.4 |
| 20260503174841 | 10 | 340 | 6.4 | 25.7 | 0.00 | 0.00 | 0.00 | 35 | 1009.6 |
| 20260503174339 | 11 | 2 | 6.4 | 11.3 | 0.00 | 0.00 | 0.00 | 35 | 1009.3 |
| 20260503173834 | 11 | 7 | 6.4 | 14.5 | 0.00 | 0.00 | 0.00 | 36 | 1009.4 |
| 20260503173331 | 10 | 28 | 4.8 | 8.0 | 0.00 | 0.00 | 0.00 | 37 | 1009.5 |
| 20260503172827 | 11 | 317 | 6.4 | 11.3 | 0.00 | 0.00 | 0.00 | 35 | 1009.6 |
| 20260503172325 | 11 | 21 | 4.8 | 9.7 | 0.00 | 0.00 | 0.00 | 36 | 1009.7 |
| 20260503171821 | 11 | 15 | 8.0 | 14.5 | 0.00 | 0.00 | 0.00 | 36 | 1009.6 |
| 20260503171318 | 10 | 308 | 8.0 | 11.3 | 0.00 | 0.00 | 0.00 | 38 | 1009.7 |
| 20260503170815 | 11 | 265 | 6.4 | 11.3 | 0.00 | 0.00 | 0.00 | 35 | 1009.8 |
| 20260503170312 | 10 | 335 | 9.7 | 16.1 | 0.00 | 0.00 | 0.00 | 38 | 1009.6 |
| 20260503150704 | 7 | 65 | 0.0 | 8.0 | 0.00 | 0.00 | 0.00 | 50 | 1010.5 |
| 20260503150200 | 7 | 284 | 3.2 | 9.7 | 0.00 | 0.00 | 0.00 | 49 | 1010.3 |
| 20260503140125 | 6 | 44 | 4.8 | 4.8 | 0.00 | 0.00 | 0.00 | 57 | 1010.6 |
| 20260503131054 | 6 | 346 | 6.4 | 11.3 | 0.00 | 0.00 | 0.00 | 57 | 1010.5 |
| 20260503130551 | 6 | 78 | 1.6 | 8.0 | 0.00 | 0.00 | 0.00 | 58 | 1010.5 |
| 20260503110442 | 3 | 161 | 1.6 | 3.2 | 0.00 | 0.00 | 0.00 | 72 | 1009.8 |
| 20260503090332 | 3 | 319 | 3.2 | 4.8 | 0.00 | 0.00 | 0.00 | 69 | 1008.8 |
| 20260503081300 | 4 | 336 | 4.8 | 11.3 | 0.00 | 0.00 | 0.00 | 66 | 1008.9 |
| 20260503080756 | 4 | 64 | 4.8 | 8.0 | 0.00 | 0.00 | 0.00 | 66 | 1009.0 |